www.pogodaiklimat.ru

Погода и климат >> Архив погоды >> Таиланд >> Ратбури


ПОГОДА в Ратбури

  • Прогноз погоды в Ратбури
  • Монитор погоды в Ратбури

АРХИВ ПОГОДЫ в Ратбури

Время (UTC), дата Ветер
(напр.,м/с)
 
Видим.   Явления Облачность Т
(С)
Тd
(С)
f
(%)
Тe
(С)
Тes
(С)
Комфортность P
(гПа)
Po
(гПа)
Тmin
(С)
Tmax
(С)
R
(мм)
R24
(мм)
S
(см)
15 15.09 штиль 0 10 км 8/3 600 м
[Sc As op Cs]
+27.1 +24.2 84 +38 +38 очень
душно
1012.0 1010.7
18 15.09 С 2 10 км 8/3 600 м
[Sc Cs]
+26.0 +23.8 88 +36 +36 очень
душно
1008.0 1006.8
21 15.09 штиль 0 10 км 8/3 600 м
[Sc Cs]
+25.8 +24.6 93 +36 +36 очень
душно
1007.3 1006.0
00 16.09 СЗ 2 12 км 8/3 600 м
[Sc Ac und Ci fib]
+25.1 +24.2 95 +35 +35 очень
душно
1008.0 1006.8 +24.8
03 16.09 штиль 0 14 км 4/1 600 м
[Cu hum Ac trans Ci fib]
+31.0 +23.6 65 +42 +57 опасность
перегрева
1009.4 1008.2
06 16.09 ЮВ 2 14 км 4/3 600 м
[Cu med, cong Ci fib]
+33.5 +24.4 59 +46 +60 опасность
перегрева
1007.2 1005.9
09 16.09 ЮЗ 2 14 км 10/4 300 м
[Cb calv As op]
+33.3 +25.4 63 +48 +48 опасность
перегрева
1004.8 1003.5
12 16.09 ЮВ 2 12 км зарница 9/3 300 м
[Cb cap As op Cs]
+29.3 +25.3 79 +43 +43 опасность
перегрева
1005.6 1004.4 +34.6
15 16.09 штиль 0 10 км 6/3 600 м
[Sc Cs]
+27.5 +23.9 81 +38 +38 очень
душно
1008.1 1006.9
18 16.09 СЗ 4 10 км 6/3 600 м
[Sc Cs]
+26.6 +23.5 83 +36 +36 очень
душно
1008.4 1007.2
21 16.09 З 2 6000 м слаб. дождь 10/6 300 м
[Sc As op]
+26.0 +24.6 92 +37 +37 очень
душно
1007.9 1006.7 0.0
00 17.09 СЗ 2 12 км {дождь} 10/6 600 м
[Sc Ac As]
+25.7 +24.7 94 +36 +36 очень
душно
1008.4 1007.2 +25.5 0.7
03 17.09 штиль 0 14 км 9/1 600 м
[Cu hum Ac As Cs]
+28.9 +24.5 77 +41 +51 опасность
перегрева
1010.0 1008.7
06 17.09 ЮВ 2 14 км 4/3 600 м
[Cu med, cong Ci fib]
+33.5 +24.2 58 +45 +59 опасность
перегрева
1008.1 1006.8
09 17.09 ЮВ 4 14 км 9/5 600 м
[Sc diur, vesp Cs]
+34.0 +25.0 59 +47 +49 опасность
перегрева
1005.7 1004.5
12 17.09 Ю 4 <100 м 8/3 600 м
[Cu med, cong Ac und Cs]
+29.5 +24.6 75 +42 +42 опасность
перегрева
1007.6 1006.3 +35.5
15 17.09 СЗ 2 10 км 10/0
[As op]
+27.1 +24.9 88 +39 +39 очень
душно
1008.9 1007.7
18 17.09 СЗ 6 10 км 10/6 600 м
[Sc diur, vesp As op]
+27.2 +24.8 87 +39 +39 очень
душно
1009.3 1008.0
21 17.09 З 2 10 км {дождь} 10/6 600 м
[Sc diur, vesp As op]
+26.8 +24.8 89 +38 +38 очень
душно
1008.7 1007.5 0.2
00 18.09 СЗ 4 14 км {дождь} 8/3 600 м
[Cu med, cong Ac und Cs]
+26.0 +24.1 89 +36 +36 очень
душно
1009.9 1008.6 +25.4 0.2
03 18.09 СЗ 4 14 км дымка 4/1 600 м
[Cu hum Ci fib]
+31.0 +24.0 66 +43 +51 опасность
перегрева
1010.7 1009.4
06 18.09 С 6 14 км 6/3 600 м
[Cu med, cong Cs]
+33.6 +24.2 58 +46 +51 опасность
перегрева
1008.4 1007.2
09 18.09 В 4 14 км 6/3 600 м
[Cu med, cong Cs]
+35.0 +23.9 53 +47 +49 опасность
перегрева
1006.6 1005.4
12 18.09 Ю 2 10 км зарница 10/3 300 м
[Cb cap As op Cs]
+31.1 +26.1 75 +47 +47 опасность
перегрева
1007.9 1006.6 +35.4
15 18.09 Ю 4 10 км зарница 10/5 300 м
[Cb cap As op]
+29.5 +25.7 80 +44 +44 опасность
перегрева
1009.9 1008.7
18 18.09 З 2 5000 м дымка {гроза} 9/3 600 м
[Sc As op Cs]
+25.7 +25.3 98 +37 +37 очень
душно
1010.1 1008.8 2
21 18.09 СЗ 2 5000 м дымка 10/3 600 м
[Sc diur, vesp As op]
+25.5 +24.8 96 +36 +36 очень
душно
1009.7 1008.4
00 19.09 СЗ 2 4000 м дымка 10/8 600 м
[Sc As op]
+25.5 +24.9 96 +36 +36 очень
душно
1010.2 1009.0 +25.3
03 19.09 С 2 8000 м дымка 10/3 600 м
[Cu hum As op Cs]
+28.5 +25.5 84 +42 +47 опасность
перегрева
1012.0 1010.7
06 19.09 С 6 8000 м дымка 10/3 300 м
[Cu Sc As op Cs]
+30.8 +25.3 73 +45 +48 опасность
перегрева
1009.5 1008.2
09 19.09 СВ 2 10 км в посл. час дождь 10/3 600 м
[Sc diur, vesp As op Cs]
+29.6 +27.4 88 +48 +50 опасность
перегрева
1007.7 1006.4 3
12 19.09 ЮЗ 2 5000 м слаб. дождь 10/6 300 м
[Sc As op]
+25.5 +23.4 88 +34 +34 очень
душно
1009.3 1008.1 +31.5 22
15 19.09 штиль 0 4000 м слаб. дождь 10/8 300 м
[Sc As op]
+25.5 +24.9 96 +36 +36 очень
душно
1011.1 1009.8 0.5
18 19.09 штиль 0 4000 м слаб. дождь 10/8 300 м
[Sc As op]
+25.7 +25.4 98 +37 +37 очень
душно
1011.6 1010.3 3
21 19.09 штиль 0 4000 м дымка {дождь} 6/3 600 м
[Sc Cs]
+25.1 +24.9 99 +36 +36 очень
душно
1009.0 1007.7 0.3
00 20.09 штиль 0 3000 м дымка {дождь} 10/3 300 м
[Sc Ac As]
+25.4 +25.0 98 +36 +36 очень
душно
1010.1 1008.9 +24.8 25
03 20.09 штиль 0 6000 м дымка 10/10 300 м
[Sc diur, vesp]
+27.6 +23.8 80 +38 +38 очень
душно
1011.1 1009.9
06 20.09 ЮВ 2 6000 м 8/5 300 м
[Sc diur, vesp Ci fib]
+31.0 +24.1 67 +43 +52 опасность
перегрева
1009.3 1008.0
09 20.09 штиль 0 10 км гроза без осадков 10/6 300 м
[Cb cap As op]
+29.2 +25.7 81 +43 +44 опасность
перегрева
1006.9 1005.6
12 20.09 ЮЗ 4 10 км {гроза} 8/5 600 м
[Sc diur, vesp As op]
+25.7 +24.1 91 +36 +36 очень
душно
1007.7 1006.4 +32.0
15 20.09 штиль 0 10 км 10/6 600 м
[Sc diur, vesp As op]
+25.7 +25.0 96 +37 +37 очень
душно
1009.9 1008.6
18 20.09 штиль 0 6000 м дымка 10/6 300 м
[Sc As op]
+25.5 +24.8 96 +36 +36 очень
душно
1009.6 1008.3
21 20.09 штиль 0 4000 м дымка 10/6 600 м
[Sc As op]
+25.3 +24.9 98 +36 +36 очень
душно
1008.9 1007.6
00 21.09 СЗ 2 3000 м дымка 6/3 300 м
[Sc Ac und Ci fib]
+25.5 +25.1 98 +37 +37 очень
душно
1009.6 1008.4 +25.1
03 21.09 С 4 <100 м 8/3 600 м
[Cu med, cong Ac und Cs]
+29.4 +25.7 81 +44 +48 опасность
перегрева
1010.4 1009.2
06 21.09 С 12 12 км 10/6 300 м
[Sc diur, vesp As op]
+31.4 +25.8 72 +46 +46 опасность
перегрева
1008.5 1007.3
09 21.09 С 2 10 км слаб. ливневой дождь, в посл. час гроза 10/4 600 м
[Sc diur, vesp As op]
+26.0 +24.7 93 +37 +38 очень
душно
1007.7 1006.4 3
12 21.09 штиль 0 10 км {гроза, дождь} 9/3 600 м
[Sc diur, vesp Ac As Cs]
+25.8 +24.6 93 +36 +36 очень
душно
1009.1 1007.9 +32.4 0.0
15 21.09 штиль 0 10 км 10/3 600 м
[Sc diur, vesp Ac As Cs]
+25.5 +24.8 96 +36 +36 очень
душно
1011.4 1010.1
18 21.09 штиль 0 10 км 10/3 600 м
[Sc diur, vesp Ac As Cs]
+25.2 +24.9 98 +36 +36 очень
душно
1010.8 1009.5
21 21.09 штиль 0 10 км 10/3 600 м
[Sc diur, vesp As op]
+25.2 +24.9 98 +36 +36 очень
душно
1010.5 1009.3
00 22.09 штиль 0 8000 м дымка {дождь} 10/6 300 м
[Sc diur, vesp As op]
+25.3 +24.6 96 +36 +36 очень
душно
1011.8 1010.5 +25.1 0.2
03 22.09 штиль 0 4000 м слаб. дождь 10/0
[As op]
+25.0 +24.6 98 +35 +39 очень
душно
1012.7 1011.4 15
06 22.09 штиль 0 5000 м слаб. ливневой дождь, в посл. час гроза 10/4 300 м
[Sc diur, vesp As op]
+23.9 +23.7 99 +32 +36 очень
душно
1012.1 1010.8 66
09 22.09 З 4 10 км в посл. час дождь 10/5 300 м
[Sc diur, vesp As op]
+25.2 +24.5 96 +35 +36 очень
душно
1010.8 1009.5 2
12 22.09 штиль 0 10 км {дождь} 10/5 600 м
[Sc diur, vesp As op]
+25.0 +24.3 96 +35 +35 очень
душно
1011.4 1010.1 +26.0 83

 

Местоположение метеостанции Ратбури (Таиланд): широта 13.37 долгота 100.98 высота над уровнем моря 2 м.

В архиве по умолчанию представлена погода в Ратбури за последнюю неделю. Архивные данные за месяц целиком и за предыдущие месяцы, начиная с января 2011 года, Вы можете получить, выбрав интересующий диапазон дат из раскрывающегося списка и нажав кнопку "Ввод!".


*Определитесь, кто Вы:
робот инопланетянин человек

Внимание! Время в таблицах - всемирное. Для получения местного времени необходимо прибавить поправку, которая равна 7 ч.

Смотрите также архив погоды в соседних городах и на ближайших метеорологических станциях:

Погода на Ко Сичан (Таиланд) (30 км)
Погода в Самутрудкан Агромете (Таиланд) (30 км)
Погода в Бангкок Пилот (Таиланд) (41 км)
Погода в Аэропорту Суварнабхуми (Таиланд) (42 км)
Погода в Бангна Агромете (Таиланд) (51 км)
Погода в Паттайе (Таиланд) (52 км)
Погода в Чаченгсау (Таиланд) (53 км)
Погода в Бангкоке 2 (Таиланд) (58 км)
Погода в Бангкоке (Таиланд) (61 км)
Погода в Хуайпонг Агромете (Таиланд) (73 км)

Пояснения к столбцам:

Ветер - указаны скорость ветра в м/с - средняя за 10 мин, порывы в срок и между сроками (в фигурных скобках) и направление, откуда дует ветер: С - северный, СВ - северо-восточный, В - восточный, ЮВ - юго-восточный, Ю - южный, ЮЗ - юго-западный, З - западный, СЗ - северо-западный.
Видимость - горизонтальная дальность видимости в метрах или километрах. При видимости от 1 до 10 км при отсутствии осадков обычно наблюдается дымка, при ухудшении видимости до 1 км и менее - туман. В сухую погоду видимость может ухудшаться дымом, пылью или мглою.
Явления - указаны атмосферные явления, наблюдавшиеся в срок или в последний час перед сроком; фигурными скобками обозначены явления, наблюдавшиеся между сроками (за 1-3 часа до срока); квадратными скобками обозначены град или гололедные отложения с указанием их диаметра в мм.
Облачность - указаны через наклонную черту общая и нижняя облачность в баллах и высота нижней границы облаков в метрах; квадратными скобками обозначены формы облаков: Ci - перистые, Cs - перисто-слоистые, Cc - перисто-кучевые, Ac - высококучевые, As - высокослоистые, Sc - слоисто-кучевые, Ns - слоисто-дождевые, Cu - кучевые, Cb - кучево-дождевые. Подробнее классификацию облаков см. в Атласе облаков (PDF).
T - Температура воздуха - температура, измеренная на высоте 2 м над землей.
Td - Температура точки росы - температура, при понижении до которой содержащийся в воздухе водяной пар достигнет насыщения.
f - Относительная влажность воздуха - влажноcть воздуха, измеренная на высоте 2 м над землей.
Te - Эффективная температура - температура, которую ощущает одетый по сезону человек в тени. Характеристика душности погоды. При расчете учитывается влияние влажности воздуха и скорости ветра на теплоощущения человека.
Tes - Эффективная температура на солнце - температура, которую ощущает человек, с поправкой на солнечный нагрев. Характеристика знойности погоды. Зависит от высоты солнца над горизонтом, облачности и скорости ветра. Ночью, в пасмурную погоду, а также при ветре 12 м/с и более поправка равна нулю.
P - Атмосферное давление - приведенное к уровню моря атмосферное давление.
Po - Атмосферное давление - измеренное на уровне метеостанции атмосферное давление.
Tmin - Минимальная температура - минимум температуры воздуха на высоте 2 м над землей.
Tmax - Максимальная температура - максимум температуры воздуха на высоте 2 м над землей.
R - Количество осадков - Количество выпавших осадков за период времени, мм. При наведении курсора мыши на число - период времени, за который выпало указанное количество осадков.
R24 - Количество осадков - Количество выпавших осадков за 24 часа, мм.
S - Снежный покров - Высота снежного покрова, см. При наведении курсора мыши на число - состояние снежного покрова и степень покрытия местности в баллах.